Zurück zum Katalog

STARLINK-31237

AktivKommunikationVLEO
NORAD 58855·PAYLOAD·🇺🇸 United States

Gestartet Jan 29, 2024 von Cape Canaveral Space Force Station

Loading…

Nächste Überflüge (nächste 24 Stunden)

TLE

AktuellSource: CelesTrak SupGP

Epoche: Sep 15, 2026, 03:27 UTC

1 58855C 24019C   26258.14423611 -.00032491  00000+0 -11769-2 0  2586
2 58855  42.9988 258.7174 0001173 273.7541 327.2089 15.27591959    13

Verfolge STARLINK-31237 in Echtzeit mit AllMySat

Download on the App Store